EW5024 Weather Reports


Display with metric or nautical units.
time (UTC)temp
F
wind
direction
speed
MPH
gust
MPH
rain 1hr
in
rain 24hr
in
rain mn
in
humidity
%
barometer
mb
20260902074553 72 327 5.0 10.0 0.00 0.00 0.00 64 1020.6
20260902073042 72 341 5.0 10.0 0.00 0.00 0.00 65 1020.6
20260902071541 72 11 4.0 10.0 0.00 0.00 0.00 67 1020.8
20260902070040 71 5 3.0 6.0 0.00 0.00 0.00 68 1020.7
20260902064543 70 5 4.0 8.0 0.00 0.00 0.00 69 1020.8
20260902063039 69 62 1.0 5.0 0.00 0.00 0.00 72 1020.8
20260902061554 68 290 0.0 0.0 0.00 0.00 0.00 74 1020.6
20260902060044 67 288 0.0 0.0 0.00 0.00 0.00 78 1020.6
20260902054533 66 288 0.0 0.0 0.00 0.00 0.00 79 1020.5
20260902053033 65 290 0.0 0.0 0.00 0.00 0.00 79 1020.4
20260902051530 66 288 0.0 0.0 0.00 0.00 0.00 78 1020.2
20260902050029 66 287 0.0 0.0 0.00 0.00 0.00 79 1020.1
20260902044535 66 287 0.0 0.0 0.00 0.00 0.00 80 1020.1
20260902043028 66 287 0.0 0.0 0.00 0.00 0.00 79 1020.0
20260902041528 66 287 0.0 0.0 0.00 0.00 0.00 79 1019.9
20260902040026 66 287 0.0 0.0 0.00 0.00 0.00 79 1020.0
20260902034526 66 287 0.0 0.0 0.00 0.00 0.00 80 1019.9
20260902033024 66 287 0.0 1.0 0.00 0.00 0.00 79 1019.9
20260902031522 67 288 0.0 3.0 0.00 0.00 0.00 79 1019.9
20260902030021 67 288 0.0 0.0 0.00 0.00 0.00 79 1019.9
20260902024525 67 288 0.0 0.0 0.00 0.00 0.00 79 1019.8
20260902023020 67 289 0.0 1.0 0.00 0.00 0.00 79 1019.8
20260902021517 67 286 0.0 0.0 0.00 0.00 0.00 79 1019.6
20260902020016 68 322 1.0 4.0 0.00 0.00 0.00 78 1019.5
20260902014514 68 310 0.0 3.0 0.00 0.00 0.00 77 1019.5
20260902013012 69 316 0.0 0.0 0.00 0.00 0.00 77 1019.4
20260902011516 69 313 0.0 3.0 0.00 0.00 0.00 77 1019.3
20260902010015 69 312 0.0 0.0 0.00 0.00 0.00 76 1019.4
20260902004508 69 311 0.0 3.0 0.00 0.00 0.00 76 1019.5
20260902003008 70 324 1.0 4.0 0.00 0.00 0.00 75 1019.5
20260902001507 70 306 0.0 2.0 0.00 0.00 0.00 75 1019.6
20260902000011 70 306 0.0 0.0 0.00 0.00 0.00 75 1019.5
20260901234506 70 306 0.0 0.0 0.00 0.00 0.00 76 1019.4
20260901233005 70 340 0.0 1.0 0.00 0.00 0.00 75 1019.4
20260901231502 70 340 1.0 5.0 0.00 0.00 0.00 75 1019.4
20260901230059 71 342 0.0 3.0 0.00 0.00 0.00 75 1019.2
20260901224556 71 342 0.0 3.0 0.00 0.00 0.00 73 1019.0
20260901223054 72 54 0.0 0.0 0.00 0.00 0.00 72 1018.8
20260901221559 73 54 0.0 0.0 0.00 0.00 0.00 70 1018.6
20260901220053 73 59 0.0 0.0 0.00 0.00 0.00 69 1018.5
20260901214645 74 360 0.0 3.0 0.00 0.00 0.00 69 1018.6
20260901213045 76 232 0.0 2.0 0.00 0.00 0.00 63 1018.5
20260901211545 76 225 0.0 0.0 0.00 0.00 0.00 63 1018.4
20260901210044 77 225 1.0 3.0 0.00 0.00 0.00 62 1018.3
20260901204544 78 191 0.0 0.0 0.00 0.00 0.00 59 1018.3
20260901203051 78 191 0.0 3.0 0.00 0.00 0.00 58 1018.3
20260901201543 78 164 0.0 3.0 0.00 0.00 0.00 58 1018.1
20260901200042 78 218 1.0 4.0 0.00 0.00 0.00 59 1017.9
20260901194545 78 107 4.0 7.0 0.00 0.00 0.00 57 1017.6
20260901193041 78 117 4.0 8.0 0.00 0.00 0.00 58 1017.4
20260901191556 79 141 4.0 9.0 0.00 0.00 0.00 57 1017.2
20260901190040 80 142 7.0 10.0 0.00 0.00 0.00 56 1017.1
20260901184545 81 180 5.0 10.0 0.00 0.00 0.00 55 1016.9
20260901183047 80 146 6.0 12.0 0.00 0.00 0.00 56 1016.8
20260901181537 81 144 7.0 14.0 0.00 0.00 0.00 55 1016.6
20260901180037 81 150 8.0 16.0 0.00 0.00 0.00 54 1016.4
20260901174541 82 210 5.0 13.0 0.00 0.00 0.00 53 1016.2
20260901173049 82 182 7.0 16.0 0.00 0.00 0.00 52 1016.3
20260901171538 82 192 8.0 20.0 0.00 0.00 0.00 51 1016.2
20260901170040 82 193 9.0 20.0 0.00 0.00 0.00 51 1016.2
20260901164541 82 198 8.0 20.0 0.00 0.00 0.00 51 1016.1
20260901163033 82 168 11.0 21.0 0.00 0.00 0.00 51 1016.2
20260901161549 82 160 11.0 20.0 0.00 0.00 0.00 51 1016.2
20260901160033 82 186 13.0 25.0 0.00 0.00 0.00 50 1016.1
20260901154535 82 180 14.0 23.0 0.00 0.00 0.00 50 1016.0
20260901153030 82 184 11.0 21.0 0.00 0.00 0.00 51 1016.2
20260901151533 82 163 13.0 26.0 0.00 0.00 0.00 48 1016.2
20260901150037 83 164 14.0 23.0 0.00 0.00 0.00 47 1016.1
20260901144537 84 215 15.0 24.0 0.00 0.00 0.00 46 1016.0
20260901143027 85 205 11.0 22.0 0.00 0.00 0.00 46 1016.0
20260901141526 84 186 10.0 24.0 0.00 0.00 0.00 46 1016.0
20260901140026 84 203 7.0 20.0 0.00 0.00 0.00 48 1016.1
20260901134526 83 214 13.0 24.0 0.00 0.00 0.00 46 1016.3
20260901133024 85 194 8.0 18.0 0.00 0.00 0.00 44 1016.4
20260901131525 84 201 1.0 5.0 0.00 0.00 0.00 49 1016.5
20260901130026 83 293 6.0 8.0 0.00 0.00 0.00 48 1016.7
20260901124520 83 197 2.0 6.0 0.00 0.00 0.00 47 1017.0
20260901123020 83 242 3.0 7.0 0.00 0.00 0.00 48 1017.1
20260901121519 84 271 2.0 6.0 0.00 0.00 0.00 46 1017.3
20260901120018 84 278 2.0 7.0 0.00 0.00 0.00 44 1017.4
20260901114514 83 275 2.0 6.0 0.00 0.00 0.00 43 1017.6
20260901113015 82 323 2.0 6.0 0.00 0.00 0.00 44 1017.8
20260901111510 82 61 1.0 5.0 0.00 0.00 0.00 43 1018.1
20260901110007 80 89 1.0 6.0 0.00 0.00 0.00 45 1018.3
20260901104507 80 314 2.0 4.0 0.00 0.00 0.00 47 1018.5
20260901103006 79 355 2.0 7.0 0.00 0.00 0.00 46 1018.7
20260901101501 78 330 0.0 4.0 0.00 0.00 0.00 49 1018.8
20260901094555 76 345 3.0 6.0 0.00 0.00 0.00 53 1019.5
20260901093055 76 355 4.0 10.0 0.00 0.00 0.00 52 1019.5
20260901091553 76 355 5.0 12.0 0.00 0.00 0.00 54 1019.6
20260901090053 75 311 6.0 10.0 0.00 0.00 0.00 54 1019.7
20260901084655 74 313 6.0 11.0 0.00 0.00 0.00 56 1019.8
20260901083051 74 355 6.0 10.0 0.00 0.00 0.00 57 1020.0
20260901081552 74 49 4.0 10.0 0.00 0.00 0.00 58 1020.0
20260901080050 73 322 5.0 11.0 0.00 0.00 0.00 60 1019.9